Location: Unspecified
(45.3999°N, 88.1269°W)
Time: 19:25:39
(UTC-05:00)

Cosmos 1674 - Visible Passes

Search period start: 19 August 2017 00:00
Search period end: 29 August 2017 00:00
Orbit: 499 x 521 km, 82.5° (Epoch: 19 August)

Date Brightness Start Highest point End Pass type
(mag) Time Alt. Az. Time Alt. Az. Time Alt. Az.
19 Aug 5.2 01:25:08 10° N 01:26:31 21° N 01:26:31 21° N visible
20 Aug 5.3 01:08:31 10° N 01:09:47 19° N 01:09:47 19° N visible
21 Aug 5.4 00:51:56 10° N 00:53:04 18° NNE 00:53:04 18° NNE visible
22 Aug 5.5 00:35:24 10° N 00:36:22 16° NNE 00:36:22 16° NNE visible
23 Aug 5.6 00:18:53 10° NNE 00:19:40 14° NNE 00:19:40 14° NNE visible
24 Aug 5.7 00:02:25 10° NNE 00:02:58 13° NNE 00:02:58 13° NNE visible
24 Aug 5.8 01:37:47 10° NNW 01:37:51 10° NNW 01:37:51 10° NNW visible
24 Aug 5.7 23:46:02 10° NNE 23:46:17 11° NNE 23:46:17 11° NNE visible
25 Aug 5.8 01:20:57 10° NNW 01:21:10 11° NNW 01:21:10 11° NNW visible
26 Aug 5.8 01:04:10 10° NNW 01:04:30 12° NNW 01:04:30 12° NNW visible
27 Aug 5.9 00:47:25 10° NNW 00:47:50 13° NNW 00:47:50 13° NNW visible
28 Aug 5.8 00:30:42 10° NNW 00:31:10 13° NNW 00:31:10 13° NNW visible
